Location: Spondin
(51.8528°N, 111.6118°W)
Time: 18:15:10
(UTC+00:00)

Vanguard 2 Rocket - Pass Details

Date: 31 May 2022
Orbit: 553 x 3323 km, 32.9° (Epoch: 02 July)

Event Time Altitude Azimuth Distance (km) Brightness Sun altitude
Rises 17:36:59 0° 203° (SSW) 6,863 11.6 53.7°
Reaches altitude 10° 17:42:48 10° 191° (S) 6,096 11.5 54.3°
Maximum altitude 17:56:37 24° 147° (SSE) 5,117 11.9 55.7°
Drops below altitude 10° 18:09:46 10° 102° (ESE) 5,827 11.5 56.9°
Sets 18:15:02 0° 91° (E) 6,516 11.5 57.3°
